Location: Unspecified
(41.1637°N, 24.2901°E)
Time: 07:20:59
(UTC+01:00)

ISS - Pass Details

Date: 11 December 2018
Orbit: 401 x 408 km, 51.6° (Epoch: 12 December)

Event Time Altitude Azimuth Distance (km) Brightness Sun altitude
Rises 18:15:20 0° 296° (WNW) 2,315 0.8 -25.7°
Reaches altitude 10° 18:17:38 10° 282° (WNW) 1,452 -0.1 -26.2°
Enters shadow 18:19:44 23° 244° (WSW) 914 -1.4 -26.6°
